Location: Brachstadt
(48.6975°N, 10.6755°E)
Time: 06:02:04
(UTC+00:00)

CSL-04 Rocket - Pass Details

Date: 18 September 2020
Orbit: 806 x 860 km, 98.9° (Epoch: 22 October)

Event Time Altitude Azimuth Distance (km) Brightness Sun altitude
Rises 18:25:58 0° 173° (S) 3,354 6.6 -11.1°
Reaches altitude 10° 18:28:19 10° 177° (S) 2,433 5.9 -11.5°
Maximum altitude 18:33:40 62° 258° (WSW) 942 4.2 -12.3°
Drops below altitude 10° 18:39:08 10° 339° (NNW) 2,485 6.7 -13.2°
Sets 18:41:34 0° 343° (NNW) 3,432 7.4 -13.6°
